This is the latest recevied weather packets stored in our database for station/object N1OF. If no packets are shown the sender has not sent any weather packets the latest 1 day(s).
| Time | Temp. | Humidity | Pressure | Rain* | Wind** | Luminosity | Snow |
|---|---|---|---|---|---|---|---|
| 1778056674 | 6.67° C | 96% | 1009.4 hPa | 1.27 mm | - | - | - |
| 1778056372 | 6.67° C | 96% | 1009.6 hPa | 0 mm | - | - | - |
| 1778056069 | 6.67° C | 96% | 1009.6 hPa | 1.78 mm | - | - | - |
| 1778055769 | 6.67° C | 96% | 1010 hPa | 1.78 mm | - | - | - |
| 1778055467 | 6.67° C | 96% | 1009.9 hPa | 0 mm | - | - | - |
| 1778055164 | 6.67° C | 96% | 1009.7 hPa | 0 mm | - | - | - |
| 1778053651 | 6.67° C | 96% | 1009.3 hPa | 0 mm | - | - | - |
| 1778052439 | 6.67° C | 97% | 1009.5 hPa | 0 mm | - | - | - |
| 1778052137 | 6.67° C | 97% | 1009.5 hPa | 0 mm | - | - | - |
| 1778051835 | 6.67° C | 97% | 1009.2 hPa | 1.78 mm | - | - | - |
| 1778051533 | 7.22° C | 97% | 1009.6 hPa | 1.78 mm | - | - | - |
| 1778050926 | 7.22° C | 97% | 1010.2 hPa | 1.27 mm | - | - | - |
| 1778050624 | 7.22° C | 97% | 1010 hPa | 1.78 mm | - | - | - |
| 1778050017 | 7.22° C | 97% | 1010 hPa | 0 mm | - | - | - |
| 1778049713 | 7.22° C | 97% | 1009.9 hPa | 1.27 mm | - | - | - |
| 1778049411 | 7.22° C | 97% | 1010.1 hPa | 0 mm | - | - | - |
| 1778048503 | 7.22° C | 97% | 1009.6 hPa | 3.05 mm | - | - | - |
| 1778048199 | 7.22° C | 97% | 1009.6 hPa | 3.05 mm | - | - | - |
| 1778047896 | 7.78° C | 97% | 1009.7 hPa | 3.05 mm | - | - | - |
| 1778047595 | 7.78° C | 97% | 1009.8 hPa | 1.27 mm | - | - | - |
| 1778046989 | 7.78° C | 97% | 1009.7 hPa | 1.27 mm | - | - | - |
| 1778046382 | 7.78° C | 97% | 1009.4 hPa | 1.27 mm | - | - | - |
| 1778046078 | 7.78° C | 97% | 1009.5 hPa | 1.27 mm | - | - | - |
| 1778045776 | 7.78° C | 97% | 1009.6 hPa | 1.78 mm | - | - | - |
| 1778045475 | 7.78° C | 97% | 1009.5 hPa | 3.05 mm | - | - | - |
* Rain latest hour (hover to see other rain measurements)
** Current wind speed in m/s (hover to see current wind gust speed)